Reflectivity
-20 -20 -20 -20 -20 -20 -20 -20 -20 -20 -20 -20 -20 -20 -20 -20 -20 -20 -20 -20 -20 -20
-20 -20 -20 -20 -20 -20 -20 -20 -20 -20 -20 -20 -20 -20 -20 -20 -20 -20 -20 -20 -20 -20
-20 -20 -20 -20 -20 -20 -20 -20 -20 -20 -20 -20 -20 -20 -20 -20 -20 -20 -20 -20 -20 -20
-20 -20 -20 -20 -20 -20 -20 -20 -20 -20 -20 -20 -20 -20 -20 -20 -20 -20 -20 -20 -20 -20
-20 -20 -20 -20 -20 -20 -20 -20 -20 -20 -20 -20 -20 -20 -20 -20 -20 -20 -20 -20 -20 -20
-20 -20 -20 -20 -20 -20 -20 -20 -20 -20 -17 -20 -20 -20 -20 -20 -20 -20 -20 -20 -20 -20
-20 -20 -20 -20 -20 -20 -20 -20 -20 -20 -20 -19 -20 -20 -20 -20 -20 -20 -20 -20 -20 -20
-20 -20 -20 -20 -20 -20 -20 -20 -20 -20 -20 -20 -20 -16 -16 -20 -20 -20 -20 -20 -14 -20
-20 -20 -20 -20 -20 -20 -20 -20 -20 -20 -20 -20 -20 -3 5 7 -9 -8 12 17 -14 14
-20 -20 -20 -20 -20 -20 -20 -20 -20 -20 -20 -20 -20 -13 8 13 6 1 4 1 -16 -20
-20 -20 -20 -20 -20 -20 -20 -20 -20 -20 -20 -20 -20 -12 7 8 5 -4 -20 -20 -11 -20
-20 -20 -20 -20 -20 -20 -20 -20 -20 -20 -20 -20 -20 -20 10 9 -14 -19 -3 12 -20 3
-20 -20 -20 -20 -20 -20 -20 -20 -20 -20 -20 -20 -20 -20 9 7 6 0 6 -20 7 -20
-20 -20 -20 -20 -20 -20 -20 -20 -20 -20 -20 -20 -20 -20 1 8 -1 -2 9 9 -20 -20
Wind_Speed
1 1 2 2 2 3 2 3 4 5 5 5 5 5 5 4 3 4 6 7 6 7
3 3 3 4 3 3 4 5 6 5 6 5 6 5 5 4 6 5 7 9 9 8
5 4 3 3 4 5 5 4 5 5 5 6 6 6 5 7 8 9 8 7 9 9
5 4 4 4 5 5 5 5 5 6 7 7 8 8 8 9 10 11 11 11 11 13
4 4 4 5 6 5 6 6 6 6 8 9 9 10 10 11 11 11 12 13 13 15
3 4 5 6 6 5 7 8 8 9 9 10 10 11 11 12 13 13 13 14 14 16
2 4 5 5 5 7 6 7 8 8 9 10 11 12 13 13 13 14 14 16 16 17
4 4 4 5 5 6 6 6 7 8 10 10 10 9 12 13 14 14 16 17 16 17
4 5 5 5 5 5 6 5 6 8 9 10 9 18 22 20 11 12 13 9 12 11
4 4 4 5 5 5 5 4 8 8 9 10 10 20 22 22 13 10 10 11 11 12
3 4 5 6 6 5 5 7 8 9 9 9 10 21 21 22 13 8 12 13 12 12
4 5 6 6 7 8 6 7 6 8 9 7 10 20 21 19 10 11 12 9 11 10
4 5 5 7 8 8 6 7 7 9 7 12 10 18 20 19 8 8 9 10 8 16
5 5 8 8 7 5 6 7 7 8 8 8 11 9 20 21 10 7 9 5 8 7
Wind_Direction
274 251 264 265 284 287 282 288 288 291 307 314 303 286 276 267 261 249 257 249 248 266
245 267 277 299 304 298 299 306 312 321 305 301 290 283 284 282 276 266 262 263 266 265
216 235 271 295 297 293 289 287 296 304 294 286 280 276 275 283 274 266 263 263 264 263
223 231 241 255 266 270 281 282 284 280 278 282 284 281 275 267 265 264 265 262 260 260
227 233 237 251 253 255 268 273 272 275 279 281 279 275 270 270 271 267 265 263 261 261
247 253 254 256 264 257 255 259 265 272 279 278 273 271 268 263 266 264 262 261 258 257
285 279 267 266 263 262 249 254 262 258 272 266 266 271 272 270 264 261 259 256 253 254
288 274 266 277 271 266 260 262 262 276 272 269 269 269 267 259 258 258 259 258 258 256
273 272 273 275 271 271 275 280 271 264 268 279 273 282 288 289 281 273 268 278 272 262
267 278 281 279 272 265 278 270 272 268 271 270 271 288 290 294 291 287 277 279 277 279
307 299 288 281 280 286 265 261 268 275 273 271 282 297 301 295 296 286 278 276 271 274
297 280 283 290 290 275 264 272 267 277 278 269 284 299 301 305 298 284 279 272 270 276
274 268 283 281 272 270 261 268 282 284 281 284 296 300 305 310 294 291 292 286 276 294
293 288 272 263 267 261 272 280 279 284 289 284 286 288 310 313 308 293 295 304 297 294